This is the latest recevied weather packets stored in our database for station/object KD2DXJ. If no packets are shown the sender has not sent any weather packets the latest 10 day(s).
| Time | Temp. | Humidity | Pressure | Rain* | Wind** | Luminosity | Snow |
|---|---|---|---|---|---|---|---|
| 1778178450 | 12.22° C | 46% | 1009.2 hPa | 0 mm | - | 751 W/m² | - |
| 1778178144 | 10.56° C | 51% | 1009.2 hPa | 0 mm | - | 777 W/m² | - |
| 1778177842 | 11.11° C | 49% | 1009.3 hPa | 0 mm | - | 243 W/m² | - |
| 1778177538 | 10.56° C | 48% | 1009.4 hPa | 0 mm | - | 241 W/m² | - |
| 1778177235 | 11.11° C | 42% | 1009.3 hPa | 0 mm | - | 241 W/m² | - |
| 1778176932 | 10.56° C | 45% | 1009.3 hPa | 0 mm | - | 558 W/m² | - |
| 1778176627 | 10° C | 49% | 1009.3 hPa | 0 mm | - | 819 W/m² | - |
| 1778176324 | 10.56° C | 47% | 1009.4 hPa | 0 mm | - | 164 W/m² | - |
| 1778176022 | 10.56° C | 47% | 1009.4 hPa | 0 mm | - | 298 W/m² | - |
| 1778175720 | 10.56° C | 49% | 1009.2 hPa | 0 mm | - | 285 W/m² | - |
| 1778175417 | 10° C | 47% | 1009.4 hPa | 0 mm | - | 226 W/m² | - |
| 1778175113 | 10° C | 45% | 1009.4 hPa | 0 mm | - | 223 W/m² | - |
| 1778174810 | 10° C | 46% | 1009.5 hPa | 0 mm | - | 294 W/m² | - |
| 1778174508 | 10° C | 47% | 1009.5 hPa | 0 mm | - | 324 W/m² | - |
| 1778174207 | 10° C | 51% | 1009.5 hPa | 0 mm | - | 214 W/m² | - |
| 1778173905 | 10.56° C | 49% | 1009.4 hPa | 0 mm | - | 194 W/m² | - |
| 1778173602 | 10.56° C | 47% | 1009.5 hPa | 0 mm | - | 303 W/m² | - |
| 1778173299 | 10.56° C | 51% | 1009.4 hPa | 0 mm | - | 260 W/m² | - |
| 1778172994 | 10° C | 50% | 1009.5 hPa | 0 mm | - | 794 W/m² | - |
| 1778172691 | 10° C | 48% | 1009.4 hPa | 0 mm | - | 223 W/m² | - |
| 1778172387 | 10° C | 44% | 1009.4 hPa | 0 mm | - | 201 W/m² | - |
| 1778172084 | 10° C | 45% | 1009.6 hPa | 0 mm | - | 198 W/m² | - |
| 1778171781 | 10° C | 51% | 1009.5 hPa | 0 mm | - | 223 W/m² | - |
| 1778171479 | 10° C | 46% | 1009.5 hPa | 0 mm | - | 201 W/m² | - |
| 1778171174 | 10° C | 47% | 1009.6 hPa | 0 mm | - | 185 W/m² | - |
* Rain latest hour (hover to see other rain measurements)
** Current wind speed in m/s (hover to see current wind gust speed)